Time,TemperatureF,DewpointF,PressureIn,WindDirection,WindDirectionDegrees,WindSpeedMPH,WindSpeedGustMPH,Humidity,HourlyPrecipIn,Conditions,Clouds,dailyrainin,SolarRadiationWatts/m^2,SoftwareType,DateUTC
2013-07-25 00:22:00,73.0,44.0,-100.00,NNW,345,4.0,9.0,35,0.00,,,0.00,1.000000,,2013-07-25 07:22:00,
2013-07-25 00:32:00,73.0,44.0,-100.00,NNW,345,4.0,9.0,35,0.00,,,0.00,1.000000,,2013-07-25 07:32:00,
2013-07-25 00:43:00,73.0,44.0,-100.00,NNW,345,4.0,9.0,35,0.00,,,0.00,1.000000,,2013-07-25 07:43:00,
2013-07-25 00:53:00,73.0,44.0,-100.00,NNW,345,4.0,9.0,35,0.00,,,0.00,1.000000,,2013-07-25 07:53:00,
2013-07-25 01:22:00,70.0,45.0,-100.00,East,85,4.0,5.0,40,0.00,,,0.00,1.000000,,2013-07-25 08:22:00,
2013-07-25 01:32:00,70.0,45.0,-100.00,East,85,4.0,5.0,40,0.00,,,0.00,1.000000,,2013-07-25 08:32:00,
2013-07-25 01:44:00,70.0,45.0,-100.00,East,85,4.0,5.0,40,0.00,,,0.00,1.000000,,2013-07-25 08:44:00,
2013-07-25 01:52:00,70.0,45.0,-100.00,East,85,4.0,5.0,40,0.00,,,0.00,1.000000,,2013-07-25 08:52:00,
2013-07-25 02:22:00,70.0,45.0,-100.00,NE,53,5.0,10.0,41,0.00,,,0.00,1.000000,,2013-07-25 09:22:00,
2013-07-25 02:33:00,70.0,45.0,-100.00,NE,53,5.0,10.0,41,0.00,,,0.00,1.000000,,2013-07-25 09:33:00,
2013-07-25 02:43:00,70.0,45.0,-100.00,NE,53,5.0,10.0,41,0.00,,,0.00,1.000000,,2013-07-25 09:43:00,
2013-07-25 02:52:00,70.0,45.0,-100.00,NE,53,5.0,10.0,41,0.00,,,0.00,1.000000,,2013-07-25 09:52:00,
2013-07-25 03:32:00,67.0,44.0,-100.00,ENE,76,4.0,7.0,44,0.00,,,0.00,1.000000,,2013-07-25 10:32:00,
2013-07-25 03:42:00,67.0,44.0,-100.00,ENE,76,4.0,7.0,44,0.00,,,0.00,1.000000,,2013-07-25 10:42:00,
2013-07-25 03:53:00,67.0,44.0,-100.00,ENE,76,4.0,7.0,44,0.00,,,0.00,1.000000,,2013-07-25 10:53:00,
2013-07-25 04:22:00,66.0,45.0,-100.00,WNW,298,4.0,6.0,47,0.00,,,-99.99,1.000000,,2013-07-25 11:22:00,
2013-07-25 04:32:00,66.0,45.0,-100.00,WNW,298,4.0,6.0,47,0.00,,,-99.99,1.000000,,2013-07-25 11:32:00,
2013-07-25 04:43:00,66.0,45.0,-100.00,WNW,298,4.0,6.0,47,0.00,,,-99.99,1.000000,,2013-07-25 11:43:00,
2013-07-25 04:52:00,66.0,45.0,-100.00,WNW,298,4.0,6.0,47,0.00,,,-99.99,1.000000,,2013-07-25 11:52:00,
2013-07-25 05:22:00,63.0,46.0,-100.00,ENE,66,4.0,6.0,53,0.00,,,0.00,1.000000,,2013-07-25 12:22:00,
2013-07-25 05:32:00,63.0,46.0,-100.00,ENE,66,4.0,6.0,53,0.00,,,0.00,1.000000,,2013-07-25 12:32:00,
2013-07-25 05:44:00,63.0,46.0,-100.00,ENE,66,4.0,6.0,53,0.00,,,0.00,1.000000,,2013-07-25 12:44:00,
2013-07-25 05:53:00,63.0,46.0,-100.00,ENE,66,4.0,6.0,53,0.00,,,0.00,1.000000,,2013-07-25 12:53:00,
2013-07-25 06:42:00,61.0,45.0,-100.00,East,81,3.0,5.0,56,0.00,,,0.00,1.000000,,2013-07-25 13:42:00,
2013-07-25 06:52:00,61.0,45.0,-100.00,East,81,3.0,5.0,56,0.00,,,0.00,1.000000,,2013-07-25 13:52:00,
2013-07-25 07:22:00,66.0,46.0,-100.00,NE,50,5.0,8.0,49,0.00,,,0.00,46.000000,,2013-07-25 14:22:00,
2013-07-25 07:33:00,66.0,46.0,-100.00,NE,50,5.0,8.0,49,0.00,,,0.00,46.000000,,2013-07-25 14:33:00,
2013-07-25 07:43:00,66.0,46.0,-100.00,NE,50,5.0,8.0,49,0.00,,,0.00,46.000000,,2013-07-25 14:43:00,
2013-07-25 07:53:00,66.0,46.0,-100.00,NE,50,5.0,8.0,49,0.00,,,0.00,46.000000,,2013-07-25 14:53:00,
2013-07-25 08:43:00,68.0,46.0,-100.00,ENE,67,6.0,9.0,46,0.00,,,0.00,197.000000,,2013-07-25 15:43:00,
2013-07-25 08:52:00,68.0,46.0,-100.00,ENE,67,6.0,9.0,46,0.00,,,0.00,197.000000,,2013-07-25 15:52:00,
2013-07-25 09:22:00,74.0,47.0,-100.00,NE,47,6.0,11.0,39,0.00,,,0.00,395.000000,,2013-07-25 16:22:00,
2013-07-25 09:33:00,74.0,47.0,-100.00,NE,47,6.0,11.0,39,0.00,,,0.00,395.000000,,2013-07-25 16:33:00,
2013-07-25 09:45:00,74.0,47.0,-100.00,NE,47,6.0,11.0,39,0.00,,,0.00,395.000000,,2013-07-25 16:45:00,
2013-07-25 09:53:00,74.0,47.0,-100.00,NE,47,6.0,11.0,39,0.00,,,0.00,395.000000,,2013-07-25 16:53:00,
2013-07-25 10:43:00,82.0,47.0,-100.00,ENE,57,4.0,9.0,29,0.00,,,0.00,581.000000,,2013-07-25 17:43:00,
2013-07-25 10:53:00,82.0,47.0,-100.00,ENE,57,4.0,9.0,29,0.00,,,0.00,581.000000,,2013-07-25 17:53:00,
2013-07-25 12:42:00,88.0,47.0,-100.00,WNW,283,7.0,12.0,24,0.00,,,0.00,868.000000,,2013-07-25 19:42:00,
2013-07-25 12:52:00,88.0,47.0,-100.00,WNW,283,7.0,12.0,24,0.00,,,0.00,868.000000,,2013-07-25 19:52:00,
2013-07-25 13:22:00,92.0,45.0,-100.00,West,272,8.0,14.0,20,0.00,,,0.00,946.000000,,2013-07-25 20:22:00,
2013-07-25 13:32:00,92.0,45.0,-100.00,West,272,8.0,14.0,20,0.00,,,0.00,946.000000,,2013-07-25 20:32:00,
2013-07-25 13:43:00,92.0,45.0,-100.00,West,272,8.0,14.0,20,0.00,,,0.00,946.000000,,2013-07-25 20:43:00,
2013-07-25 13:53:00,92.0,45.0,-100.00,West,272,8.0,14.0,20,0.00,,,0.00,946.000000,,2013-07-25 20:53:00,
2013-07-25 14:22:00,93.0,40.0,-100.00,WSW,253,7.0,14.0,16,0.00,,,0.00,972.000000,,2013-07-25 21:22:00,
2013-07-25 14:32:00,93.0,40.0,-100.00,WSW,253,7.0,14.0,16,0.00,,,0.00,972.000000,,2013-07-25 21:32:00,
2013-07-25 14:44:00,93.0,40.0,-100.00,WSW,253,7.0,14.0,16,0.00,,,0.00,972.000000,,2013-07-25 21:44:00,
2013-07-25 14:52:00,93.0,40.0,-100.00,WSW,253,7.0,14.0,16,0.00,,,0.00,972.000000,,2013-07-25 21:52:00,
2013-07-25 15:22:00,94.0,43.0,-100.00,WNW,284,9.0,15.0,17,0.00,,,0.00,961.000000,,2013-07-25 22:22:00,
2013-07-25 15:32:00,94.0,43.0,-100.00,WNW,284,9.0,15.0,17,0.00,,,0.00,961.000000,,2013-07-25 22:32:00,
2013-07-25 15:43:00,94.0,43.0,-100.00,WNW,284,9.0,15.0,17,0.00,,,0.00,961.000000,,2013-07-25 22:43:00,
2013-07-25 15:52:00,94.0,43.0,-100.00,WNW,284,9.0,15.0,17,0.00,,,0.00,961.000000,,2013-07-25 22:52:00,
2013-07-25 16:22:00,94.0,44.0,-100.00,West,266,9.0,17.0,18,0.00,,,0.00,892.000000,,2013-07-25 23:22:00,
2013-07-25 16:32:00,94.0,44.0,-100.00,West,266,9.0,17.0,18,0.00,,,0.00,892.000000,,2013-07-25 23:32:00,
2013-07-25 16:43:00,94.0,44.0,-100.00,West,266,9.0,17.0,18,0.00,,,0.00,892.000000,,2013-07-25 23:43:00,
2013-07-25 16:52:00,94.0,44.0,-100.00,West,266,9.0,17.0,18,0.00,,,0.00,892.000000,,2013-07-25 23:52:00,
2013-07-25 17:22:00,91.0,40.0,-100.00,NW,312,8.0,16.0,17,0.00,,,0.00,667.000000,,2013-07-26 00:22:00,
2013-07-25 17:32:00,91.0,40.0,-100.00,NW,312,8.0,16.0,17,0.00,,,0.00,667.000000,,2013-07-26 00:32:00,
2013-07-25 17:43:00,91.0,40.0,-100.00,NW,312,8.0,16.0,17,0.00,,,0.00,667.000000,,2013-07-26 00:43:00,
2013-07-25 17:52:00,91.0,40.0,-100.00,NW,312,8.0,16.0,17,0.00,,,0.00,667.000000,,2013-07-26 00:52:00,
2013-07-25 18:43:00,93.0,42.0,-100.00,NW,304,8.0,12.0,17,0.00,,,0.00,372.000000,,2013-07-26 01:43:00,
2013-07-25 18:52:00,93.0,42.0,-100.00,NW,304,8.0,12.0,17,0.00,,,0.00,372.000000,,2013-07-26 01:52:00,
2013-07-25 20:43:00,87.0,50.0,-100.00,WNW,295,7.0,14.0,28,0.00,,,0.00,204.000000,,2013-07-26 03:43:00,
2013-07-25 20:53:00,87.0,50.0,-100.00,WNW,295,7.0,14.0,28,0.00,,,0.00,204.000000,,2013-07-26 03:53:00,
2013-07-25 21:22:00,81.0,47.0,-100.00,NW,315,7.0,16.0,30,0.00,,,0.00,52.000000,,2013-07-26 04:22:00,
2013-07-25 21:32:00,81.0,47.0,-100.00,NW,315,7.0,16.0,30,0.00,,,0.00,52.000000,,2013-07-26 04:32:00,
2013-07-25 21:42:00,81.0,47.0,-100.00,NW,315,7.0,16.0,30,0.00,,,0.00,52.000000,,2013-07-26 04:42:00,
2013-07-25 21:53:00,81.0,47.0,-100.00,NW,315,7.0,16.0,30,0.00,,,0.00,52.000000,,2013-07-26 04:53:00,
2013-07-25 22:32:00,78.0,47.0,-100.00,NE,34,3.0,9.0,33,0.00,,,0.00,1.000000,,2013-07-26 05:32:00,
2013-07-25 22:43:00,78.0,47.0,-100.00,NE,34,3.0,9.0,33,0.00,,,0.00,1.000000,,2013-07-26 05:43:00,
2013-07-25 22:52:00,78.0,47.0,-100.00,NE,34,3.0,9.0,33,0.00,,,0.00,1.000000,,2013-07-26 05:52:00,
2013-07-25 23:33:00,76.0,46.0,-100.00,NE,41,6.0,10.0,35,0.00,,,-99.99,1.000000,,2013-07-26 06:33:00,
2013-07-25 23:43:00,76.0,46.0,-100.00,NE,41,6.0,10.0,35,0.00,,,-99.99,1.000000,,2013-07-26 06:43:00,
2013-07-25 23:52:00,76.0,46.0,-100.00,NE,41,6.0,10.0,35,0.00,,,-99.99,1.000000,,2013-07-26 06:52:00,